{"data":{"norad_id":59203,"intl_designator":"2024-046C","name":"STARLINK-31577","alt_names":[],"object_type":"PAYLOAD","status":"ACTIVE","operator":null,"country":"US","launch_date":"2024-03-11","launch_site_code":"AFWTR","launch_vehicle":null,"mission":null,"orbit_class":"UNKNOWN","rcs_meters":null,"size_class":null,"mass_kg":null,"dimensions":null,"purposes":["comms"],"wikipedia_slug":null,"has_3d_model":false,"image_url":null,"decayed_at":null,"tle_current":{"epoch":"2026-05-25T04:00:03.998880Z","epoch_age_seconds":57751,"freshness":"FRESH","line1":"1 59203U 24046C   26145.16671295 -.00019192  00000+0 -55821-3 0  9997","line2":"2 59203  53.1587 158.8512 0001201  83.4432  14.4274 15.34405458  5868","mean_motion":15.34405458,"eccentricity":0.0001201,"inclination_deg":53.1587,"raan_deg":158.8512,"arg_perigee_deg":83.4432,"mean_anomaly_deg":14.4274,"bstar":-0.00055821,"rev_number":586,"period_min":93.847424257533,"perigee_km":461.86543496442,"apogee_km":463.50860089352,"semimajor_km":6840.824017929,"source":"CELESTRAK","updated_at":"2026-05-25T13:38:18.864118Z"}}}